COSMOS 2251 DEB, 35647

Orbit data source: Space-Track

COSMOS 2251 DEB, 35647 is space debris in LEO originally from a launch on Wed, 16 Jun 1993 UTC launched from the Plesetsk Missile And Space Complex (PKMTR). The debris from Iridium 33, an American commercial communications satellite, has been tracked extensively since its accidental collision with the defunct Russian satellite Cosmos 2251 in 2009. This event, occurring at high speed in low Earth orbit (LEO), generated thousands of pieces of space debris, significantly increasing the risk of further collisions. The Iridium 33 debris cloud has impacted space traffic management and orbital debris mitigation strategies, making it a subject of ongoing study in space situational awareness.

Loading next visibility...
Identifier
35647, 1993-036ANN
Orbit
LEO
Country
Flag of CISCIS
Related business
Manufacturer
Unknown
Mission
Spacecraft
Bus & Motor
Unknown
Mass
Unknown
Launch date (UTC)
1993-06-16 (33 years ago)
Launch vehicle
Unknown
Launch site
Plesetsk Missile And Space Complex (PKMTR)
Object type
Payload
Rocket body
Debris
Shape & HBR
Unknown shape, 0.1 m
Radar Cross Section
Small (<0.1 m²)

Expand to show TLE details & history
Last TLE update: 2 weeks ago

TLE from 2 weeks ago
0 COSMOS 2251 DEB
1 35647U 93036ANN 26027.21832382  .00003874  00000-0  11279-2 0  9996
2 35647  74.0194 209.9416 0046950 300.7979  58.8560 14.43904465683203
Epoch: 2026-01-27T05:14Z
TLE epoch observation values (Epoch: 2026-01-27T05:14:23.178Z)
Latitude
-0.00004°
Longitude
4.84213°
Altitude
731.062 km
Speed
7.499 km/s
True Right ascension
13h 59m 45s
True Declination
0° 00' 00"
Sunlit
Object was in daylight at epoch
Visualization orbit readout
Latitude
Unknown
Longitude
Unknown
Altitude
Unknown
Speed
Unknown
Apparent Right ascension
Unknown
Apparent Declination
Unknown
Sunlit
N/A
Visualization observer readout
Local Sidereal Time
18:31:46
Azimuth
Unknown
Elevation
Unknown
Doppler factor
Unknown
Orbital elements
Apogee altitude
776.679 km
Perigee altitude
709.809 km
Semi-major axis
7,121.381 km
Eccentricity
0.0047
Inclination
74.0194°
RAAN
209.9416°
Arg. of periapsis
300.7979°
True anomaly
59.31786°
Mean anomaly
58.856°
Eccentric anomaly
59.08679°
Mean motion
3.61158 °/min
Orbital period
99.68 mins
BSTAR
0.0011279
Loading maneuver chart data...
Computing Atmospheric mass density...
Loading historical data...
Loading historical data...
Loading historical data...
Loading historical data...
Loading historical data...
Loading historical data...
Loading historical data...

Documentation

Showing up to 5 results
|